Location: Caderuschi
(44.9833°N, 12.0333°E)
Time: 05:54:25
(UTC+00:00)

Daily predictions for brighter satellites

Satellite Brightness Start Highest point End
(mag) Time Altitude Azimuth Time Altitude Azimuth Time Altitude Azimuth
Okean 1 Rocket 4.3 00:09:30 38° N 00:09:30 38° N 00:12:16 10° N
SJ 16-02 2.6 00:09:53 39° NNE 00:09:53 39° NNE 00:12:41 10° NNE
Cosmos 2263 Rocket 3.5 00:14:58 28° E 00:14:58 28° E 00:19:21 10° NE
SL-16 R/B 2.6 00:09:13 10° NNW 00:13:48 57° NW 00:13:48 57° NW
Cosmos 2142 Rocket 4.4 00:17:47 86° SSW 00:17:57 89° W 00:24:24 10° N
MOZ.5/SAFIR/RUBIN 5/SL-8 4.4 00:22:13 55° NE 00:22:13 55° NE 00:26:14 10° N
Cosmos 1937 Rocket 4.0 00:27:08 53° E 00:27:08 53° E 00:31:50 10° NNE
SL-19 R/B 4.2 00:21:14 10° NNE 00:26:52 77° E 00:26:52 77° E
Cosmos 990 Rocket 4.2 00:29:47 68° NNE 00:29:47 68° NNE 00:34:19 10° NNE
Cosmos 2297 Rocket 3.3 00:28:55 32° WNW 00:29:32 32° NW 00:34:36 10° N
ADEOS II 3.9 00:28:33 10° NE 00:32:27 21° E 00:33:36 19° ESE
Cosmos 1455 Rocket 4.0 00:35:30 45° ENE 00:35:30 45° ENE 00:39:01 10° NNE
ATLAS CENTAUR R/B 3.9 00:37:35 14° E 00:37:35 14° E 00:38:39 10° ENE
Cosmos 2266 Rocket 4.3 00:30:42 10° N 00:36:58 60° ENE 00:38:25 48° SE
USA 229 DEB 3.4 00:36:45 76° S 00:37:19 84° SE 00:44:12 10° NE
USA 229 3.4 00:36:53 76° S 00:37:25 83° SE 00:44:17 10° NE
Cosmos 2112 Rocket 4.4 00:32:43 10° NNW 00:36:46 53° NW 00:36:46 53° NW
UNK 4.2 00:38:59 59° NE 00:38:59 59° NE 00:43:17 10° N
Cosmos 1726 4.5 00:39:49 19° ENE 00:39:49 19° ENE 00:41:46 10° NE
Cosmos 2237 Rocket 4.4 00:40:20 10° WNW 00:41:12 12° WNW 00:41:12 12° WNW
Cosmos 1898 Rocket 3.5 00:43:57 74° NNW 00:43:57 74° NNW 00:48:48 10° NNE
NOSS 2-3 (C) 4.2 00:48:09 53° ENE 00:48:09 53° ENE 00:52:09 10° NE
GEOS 3 Rocket 4.0 00:42:06 10° NE 00:47:19 54° ESE 00:47:19 54° ESE
NOSS 3-1 (A) 3.2 00:48:36 73° SE 00:48:42 74° ESE 00:54:59 10° NE
Cosmos 1892 Rocket 4.3 00:44:35 10° N 00:47:51 48° NNW 00:47:51 48° NNW
Meteor 1-24 Rocket 3.7 00:44:18 10° NNW 00:49:06 65° WNW 00:49:06 65° WNW
IRAS Rocket 4.1 00:49:56 76° SE 00:50:24 85° ENE 00:56:03 10° NNW
Cosmos 1680 Rocket 4.5 00:48:04 10° NNW 00:51:28 35° WNW 00:51:28 35° WNW
Cosmos 1461 4.4 00:55:29 32° NW 00:55:29 32° NW 00:59:32 10° NNE
Cosmos 1603 3.9 00:49:48 10° NNW 00:55:32 69° ENE 00:57:17 44° SE
Cosmos 1340 Rocket 3.6 01:07:07 49° N 01:07:07 49° N 01:10:04 10° N
CZ-2D R/B 2.0 01:01:58 10° NNE 01:07:29 85° WNW 01:08:00 74° SW
Cosmos 1758 3.9 01:08:43 55° NNE 01:08:43 55° NNE 01:11:54 10° N
SL-16 R/B 2.5 01:09:25 61° SSW 01:10:17 68° WSW 01:16:33 10° NNW
Timation 1 Rocket 4.3 01:10:12 61° WSW 01:11:03 70° WNW 01:17:02 10° NNE
SL-24 R/B 4.3 01:12:55 80° SW 01:13:05 81° W 01:18:24 10° N
Cosmos 1943 3.2 01:08:27 10° NNW 01:14:07 80° ENE 01:16:10 41° SE
USA 215 4.4 01:09:15 10° ENE 01:14:45 28° SE 01:16:30 25° SSE
Cosmos 1626 4.5 01:14:20 10° NNW 01:15:17 16° NW 01:15:17 16° NW
Cosmos 1655 Rocket 4.1 01:11:49 10° NNW 01:17:52 53° W 01:18:27 51° WSW
Cosmos 2227 Rocket 4.1 01:18:31 15° WNW 01:20:39 18° NW 01:24:30 10° N
Cosmos 2292 Rocket 4.4 01:14:51 10° NNW 01:21:35 56° W 01:22:07 54° WSW
Cosmos 1544 Rocket 3.6 01:22:37 68° NW 01:22:37 68° NW 01:26:48 10° N
Cosmos 1470 3.6 01:24:18 42° NW 01:24:18 42° NW 01:27:21 10° N
Cosmos 1953 2.6 01:23:54 61° E 01:23:54 61° E 01:27:50 10° NNE
IRS-1D 3.7 01:19:24 10° NNE 01:24:31 67° ESE 01:25:39 52° SSE
NPP 3.6 01:20:54 10° N 01:26:16 70° WNW 01:27:05 60° WSW
AQUA 3.7 01:29:16 10° N 01:34:00 68° WNW 01:34:26 64° WSW
Atlas Centaur 2 4.0 01:38:02 19° SSE 01:38:02 19° SSE 01:42:00 10° ESE
Exosat Rocket 4.4 01:36:53 39° SW 01:39:47 64° WNW 01:45:47 10° NNE
Resurs 1-4 Rocket 2.6 01:35:49 10° N 01:40:46 43° WNW 01:41:36 40° W
Cosmos 1602 Rocket 3.3 01:39:37 10° N 01:44:00 82° W 01:44:26 71° SSW
Meteor 2-21 Rocket 4.4 01:38:31 10° N 01:44:37 84° E 01:48:18 26° SSE
Cosmos 2098 Rocket 4.4 01:40:01 10° NNW 01:45:25 42° W 01:46:33 39° WSW
NOSS 2-3 (E) 4.4 01:44:49 37° WNW 01:45:44 42° NW 01:50:38 10° NNE
SJ 16-02 3.7 01:46:52 12° WNW 01:47:29 12° NW 01:49:20 10° NNW
IDEFIX/ARIANE 42P 3.9 01:44:48 10° NNE 01:49:34 35° E 01:53:20 15° SSE
Meteor 2-14 Rocket 4.3 01:43:51 10° NNW 01:49:55 75° W 01:52:41 34° S
Cosmos 1908 3.4 01:56:15 51° SSE 01:57:04 70° E 02:00:59 10° NNE
Cosmos 1048 Rocket 3.9 01:52:13 10° NNW 01:57:24 87° WSW 02:01:22 18° SSE
Cosmos 2263 Rocket 2.7 01:56:40 36° WSW 01:58:21 47° WNW 02:03:44 10° NNE
IRS-P3 4.1 01:54:08 10° NNE 01:59:31 88° ESE 02:01:52 35° SSW
Cosmos 2298 Rocket 4.0 01:57:57 44° SW 01:59:37 71° WNW 02:04:58 10° NNE
Cosmos 2228 3.7 01:59:31 26° SSE 02:01:44 52° E 02:06:01 10° NNE
Meteor 1-16 Rocket 4.1 02:01:58 36° SSW 02:04:16 81° W 02:09:55 10° N
Cosmos 372 Rocket 4.5 02:04:37 36° WSW 02:06:07 45° WNW 02:11:11 10° N
Meteor 1-28 Rocket 3.1 02:06:34 41° SSE 02:07:49 89° W 02:11:39 10° NNW
COBE Rocket 4.4 02:08:32 34° W 02:08:35 34° W 02:12:50 10° NNW
SL-08 R/B 3.3 02:05:26 23° S 02:08:37 82° WSW 02:13:35 10° NNW
ADEOS II 2.3 02:07:21 10° N 02:12:29 55° WNW 02:14:31 34° SW
Cosmos 1356 Rocket 4.2 02:10:31 22° SSE 02:12:56 49° E 02:16:54 10° NNE
Cosmos 1626 Rocket 4.5 02:09:29 10° NNW 02:13:03 29° W 02:13:03 29° W
Cosmos 2285 Rocket 4.0 02:10:59 32° SW 02:14:04 70° WNW 02:20:22 10° NNE
Cosmos 1726 3.3 02:14:19 27° WNW 02:14:19 27° WNW 02:17:16 10° NNW
Spot 4 Rocket 4.4 02:09:12 10° NNE 02:14:19 60° ESE 02:18:02 19° S
CZ-2C R/B 4.2 02:10:58 10° NNE 02:14:26 33° E 02:17:08 14° SSE
ATLAS CENTAUR R/B 1.5 02:13:46 43° WSW 02:14:45 57° NW 02:18:37 10° NNE
CZ-4B R/B 4.1 02:10:58 10° N 02:15:20 38° WNW 02:16:40 31° WSW
Cosmos 1900 4.4 02:11:26 10° NNW 02:16:37 85° ENE 02:21:46 10° SE
Cosmos 1300 4.0 02:14:37 15° SSE 02:17:24 37° E 02:20:57 10° NNE
Cosmos 1553 Rocket 3.9 02:15:29 23° S 02:19:30 86° W 02:25:41 10° N
NOSS 2-2 (C) 4.4 02:18:19 24° SSE 02:19:43 33° ESE 02:23:08 10° NE
Cosmos 1844 Rocket 3.0 02:17:42 22° S 02:21:15 63° ESE 02:26:45 10° NNE
ERS-2 4.1 02:18:36 10° SE 02:21:49 30° ENE 02:25:04 10° N
NOSS 8 (H) 4.1 02:24:24 55° SSW 02:25:00 83° ESE 02:28:01 10° NE
CZ-4C R/B 4.2 02:22:24 10° SE 02:25:32 41° ENE 02:28:45 10° N
Meteor 1-11 4.2 02:20:35 10° N 02:26:21 90° SE 02:32:01 10° S
SL-08 ROCKET BODY 4.3 02:23:30 10° N 02:29:34 89° W 02:35:30 10° S
Cosmos 2084 4.3 02:28:47 27° W 02:30:41 41° NW 02:34:56 10° NNE
Cosmos 1745 Rocket 4.0 02:25:03 10° N 02:31:21 89° E 02:37:32 10° S
Lacrosse 5 rocket 4.1 02:30:47 10° SE 02:32:35 12° ESE 02:34:24 10° E
ARIANE 5 R/B 2.6 02:27:43 10° N 02:32:55 67° WNW 02:36:11 23° SSW
Cosmos 1758 Rocket 3.9 02:32:03 10° NNW 02:36:10 44° W 02:38:14 25° SSW
SeaSat 1 4.5 02:32:54 10° NE 02:36:50 23° ESE 02:40:44 10° SSE
Cosmos 2058 Rocket 3.2 02:41:30 12° S 02:45:41 75° E 02:50:07 10° NNE
Cosmos 494 Rocket 4.1 02:40:43 10° NNW 02:45:44 52° WSW 02:50:45 10° S
H-2A R/B 1.9 02:42:31 10° SSE 02:46:37 84° ENE 02:50:44 10° NNW
CZ-2D R/B 4.1 02:43:52 10° NNW 02:46:42 14° NW 02:49:18 11° W
S3M 4.1 02:45:35 13° SSW 02:51:21 69° W 02:57:45 10° N
Cosmos 1703 4.4 02:48:19 10° NNW 02:51:36 25° W 02:52:42 22° WSW
CZ-2C R/B 3.5 02:49:06 10° NNE 02:53:29 41° E 02:57:55 10° S
Cosmos 1825 Rocket 4.1 02:50:44 10° NNW 02:54:41 36° W 02:57:30 17° SSW
SL-16 R/B 4.4 02:54:31 10° W 02:55:00 10° W 02:55:57 10° WNW
Landsat 5 3.3 02:51:34 10° SSE 02:55:33 84° WSW 02:59:44 10° NNW
Cosmos 1125 Rocket 4.2 02:54:00 19° WSW 02:57:16 39° WNW 03:02:12 10° N
USA 215 3.3 02:51:40 10° NE 02:58:15 88° NW 03:03:50 15° SW
Cosmos 1953 4.5 02:59:36 11° W 03:00:39 12° WNW 03:02:16 10° NW
SL-24 R/B 4.5 02:57:34 10° S 03:02:56 61° WSW 03:07:31 10° NNW
CZ-4B R/B 3.3 03:01:39 10° SE 03:04:30 31° ENE 03:07:20 10° N
Cosmos 1892 3.8 03:01:17 10° N 03:05:00 47° ENE 03:08:41 10° SSE
Cosmos 1953 Rocket 4.0 03:01:58 10° NNW 03:06:12 42° W 03:10:23 10° SSW
CZ-2D R/B 4.2 03:06:31 10° N 03:10:06 33° WNW 03:12:52 15° SW
Cosmos 1709 Rocket 3.9 03:04:57 10° N 03:11:09 81° W 03:17:14 10° S
PAYLOAD A 4.2 03:10:43 10° NNE 03:16:01 81° ESE 03:21:06 10° SSW
USA 238 DEB 4.2 03:14:51 10° NW 03:22:05 72° NE 03:29:34 10° SE
USA 238 4.3 03:14:57 10° NW 03:22:11 71° NE 03:29:39 10° SE
Atlas Centaur 2 4.0 03:20:39 11° SW 03:25:32 24° S 03:31:27 10° SE
NOSS 2-2 (E) 3.9 03:22:45 12° WSW 03:25:49 41° NW 03:29:42 10° NNE
NOSS 2-2 (D) 3.5 03:23:29 12° WSW 03:26:38 51° NW 03:30:31 10° NNE
CENTAUR R/B 4.0 03:20:29 10° NNW 03:28:20 58° NE 03:36:58 10° ESE
IDEFIX/ARIANE 42P 3.4 03:24:29 10° N 03:29:05 33° WNW 03:33:41 10° SW
USA 267 3.4 03:23:44 10° SE 03:30:18 88° NE 03:36:53 10° NW
ADEOS 4.1 03:25:47 10° NNE 03:30:59 62° ESE 03:36:08 10° S
Cosmos 2082 Rocket 4.2 03:28:31 10° N 03:33:36 33° NE 03:38:37 10° ESE
MSX 4.3 03:29:36 10° N 03:35:03 45° WNW 03:40:30 10° SW
PSLV R/B 3.7 03:31:37 10° N 03:35:57 62° WNW 03:40:13 10° SSW
COSMOS 2406 3.5 03:32:41 10° NNW 03:38:25 78° ENE 03:44:05 10° SSE
Cosmos 1825 3.3 03:35:59 10° N 03:39:38 49° ENE 03:43:17 10° SSE
ADEOS Rocket 3.8 03:33:10 10° SSE 03:40:54 81° ENE 03:48:39 10° NNW
Meteor 2-1 Rocket 4.5 03:35:11 10° S 03:41:04 86° E 03:47:02 10° NNE
Cosmos 2315 Rocket 4.2 03:34:50 10° SSW 03:41:04 58° WNW 03:47:23 10° N
Cosmos 1844 4.4 03:38:02 10° SW 03:43:28 41° NW 03:48:53 10° NNE
Cosmos 2263 Rocket 4.4 03:42:51 10° NW 03:43:47 10° NW 03:44:43 10° NNW
